ASA121 KPDX-KMSO

Flight info

Callsign ASA121
Flight time 1h 7m
Altitude 33000
Route LAVAA7 SUNED
Aircraft B38M/M-SDE1FGHILORVWXY/HB1

Departure

Time 2026-04-23 06:24
Airport Portland International Airport (KPDX)

Arrival

Time 2026-04-23 07:31
Airport Missoula Montana Airport (KMSO)
Time Latitude Longitude Altitude Speed Heading
2026-04-23 05:53 45.59030 -122.59834 36 ft 0 kts 211°
2026-04-23 06:10 45.59033 -122.59832 36 ft 3 kts 211°
2026-04-23 06:10 45.59049 -122.59818 35 ft 3 kts 211°
2026-04-23 06:10 45.59066 -122.59804 35 ft 3 kts 213°
2026-04-23 06:10 45.59079 -122.59785 34 ft 3 kts 244°
2026-04-23 06:11 45.59083 -122.59759 34 ft 3 kts 274°
2026-04-23 06:11 45.59079 -122.59735 34 ft 2 kts 301°
2026-04-23 06:11 45.59078 -122.59733 34 ft 0 kts 301°
2026-04-23 06:16 45.59081 -122.59741 34 ft 0 kts 301°
2026-04-23 06:16 45.59082 -122.59743 34 ft 1 kts 300°
2026-04-23 06:16 45.59093 -122.59798 34 ft 11 kts 288°
2026-04-23 06:16 45.59108 -122.59842 34 ft 0 kts 301°
2026-04-23 06:17 45.59112 -122.59852 33 ft 4 kts 298°
2026-04-23 06:17 45.59137 -122.59958 33 ft 17 kts 277°
2026-04-23 06:18 45.59111 -122.60075 34 ft 13 kts 227°
2026-04-23 06:18 45.59025 -122.60151 33 ft 13 kts 209°
2026-04-23 06:18 45.58968 -122.60174 34 ft 8 kts 160°
2026-04-23 06:18 45.58929 -122.60106 36 ft 10 kts 120°
2026-04-23 06:19 45.58891 -122.60010 36 ft 13 kts 119°
2026-04-23 06:19 45.58815 -122.59936 37 ft 15 kts 164°
2026-04-23 06:19 45.58743 -122.59844 40 ft 15 kts 118°
2026-04-23 06:19 45.58688 -122.59702 38 ft 19 kts 118°
2026-04-23 06:20 45.58618 -122.59522 36 ft 22 kts 119°
2026-04-23 06:20 45.58535 -122.59311 33 ft 26 kts 119°
2026-04-23 06:20 45.58442 -122.59072 33 ft 29 kts 119°
2026-04-23 06:20 45.58348 -122.58831 35 ft 24 kts 118°
2026-04-23 06:21 45.58299 -122.58703 34 ft 22 kts 118°
2026-04-23 06:21 45.58225 -122.58514 35 ft 19 kts 119°
2026-04-23 06:21 45.58177 -122.58390 32 ft 8 kts 122°
2026-04-23 06:21 45.58163 -122.58370 32 ft 0 kts 147°
2026-04-23 06:22 45.58162 -122.58369 32 ft 1 kts 147°
2026-04-23 06:23 45.58137 -122.58359 32 ft 6 kts 178°
2026-04-23 06:23 45.58089 -122.58383 33 ft 8 kts 207°
2026-04-23 06:23 45.58066 -122.58423 34 ft 4 kts 266°
2026-04-23 06:23 45.58115 -122.58560 37 ft 42 kts 300°
2026-04-23 06:24 45.58392 -122.59270 34 ft 118 kts 299°
2026-04-23 06:24 45.58890 -122.60523 206 ft 159 kts 300°
2026-04-23 06:24 45.59474 -122.61908 972 ft 166 kts 300°
2026-04-23 06:24 45.60088 -122.63362 1816 ft 179 kts 298°
2026-04-23 06:25 45.60788 -122.65019 2419 ft 210 kts 298°
2026-04-23 06:25 45.61576 -122.66873 3192 ft 229 kts 299°
2026-04-23 06:25 45.62423 -122.68914 4136 ft 242 kts 298°
2026-04-23 06:25 45.63270 -122.71018 5148 ft 252 kts 298°
2026-04-23 06:26 45.64162 -122.73224 6156 ft 260 kts 298°
2026-04-23 06:26 45.65076 -122.75480 7200 ft 265 kts 300°
2026-04-23 06:26 45.66095 -122.77694 8245 ft 268 kts 312°
2026-04-23 06:26 45.67621 -122.79187 9320 ft 268 kts 343°
2026-04-23 06:27 45.69453 -122.79326 10399 ft 269 kts
2026-04-23 06:27 45.71232 -122.78474 11426 ft 272 kts 22°
2026-04-23 06:27 45.72945 -122.77153 12119 ft 289 kts 29°
2026-04-23 06:27 45.74630 -122.75436 12841 ft 303 kts 40°
2026-04-23 06:28 45.75809 -122.72866 13599 ft 322 kts 67°
2026-04-23 06:28 45.76190 -122.69620 14278 ft 339 kts 86°
2026-04-23 06:28 45.76041 -122.66245 15289 ft 340 kts 92°
2026-04-23 06:28 45.75823 -122.62853 15898 ft 352 kts 91°
2026-04-23 06:29 45.75659 -122.59341 16743 ft 354 kts 90°
2026-04-23 06:29 45.75579 -122.55809 17661 ft 355 kts 88°
2026-04-23 06:29 45.75569 -122.52267 18504 ft 358 kts 87°
2026-04-23 06:29 45.75575 -122.48643 18986 ft 369 kts 87°
2026-04-23 06:30 45.75568 -122.44944 19617 ft 373 kts 87°
2026-04-23 06:30 45.75522 -122.41250 20403 ft 374 kts 89°
2026-04-23 06:30 45.75443 -122.37482 21016 ft 379 kts 88°
2026-04-23 06:30 45.75385 -122.33686 21660 ft 382 kts 88°
2026-04-23 06:31 45.75335 -122.29909 22282 ft 387 kts 88°
2026-04-23 06:31 45.75284 -122.26036 22899 ft 391 kts 88°
2026-04-23 06:31 45.75230 -122.22114 23522 ft 395 kts 88°
2026-04-23 06:31 45.75175 -122.18138 24074 ft 400 kts 88°
2026-04-23 06:32 45.75118 -122.14141 24569 ft 404 kts 88°
2026-04-23 06:32 45.75058 -122.10097 25062 ft 408 kts 88°
2026-04-23 06:32 45.74997 -122.06024 25517 ft 412 kts 88°
2026-04-23 06:32 45.74933 -122.01904 25997 ft 415 kts 88°
2026-04-23 06:33 45.74868 -121.97791 26456 ft 419 kts 88°
2026-04-23 06:33 45.74802 -121.93603 26906 ft 423 kts 88°
2026-04-23 06:33 45.74757 -121.89383 27336 ft 425 kts 84°
2026-04-23 06:33 45.75101 -121.85183 27748 ft 424 kts 74°
2026-04-23 06:34 45.75965 -121.81142 28160 ft 424 kts 64°
2026-04-23 06:34 45.77129 -121.77244 28557 ft 426 kts 62°
2026-04-23 06:34 45.78322 -121.73353 28970 ft 430 kts 63°
2026-04-23 06:34 45.79509 -121.69392 29366 ft 434 kts 63°
2026-04-23 06:35 45.80684 -121.65449 29773 ft 437 kts 63°
2026-04-23 06:35 45.81882 -121.61423 30176 ft 440 kts 63°
2026-04-23 06:35 45.83085 -121.57371 30513 ft 443 kts 63°
2026-04-23 06:35 45.84299 -121.53283 30837 ft 446 kts 63°
2026-04-23 06:36 45.85519 -121.49167 31154 ft 449 kts 63°
2026-04-23 06:36 45.86744 -121.45025 31497 ft 452 kts 63°
2026-04-23 06:36 45.87977 -121.40852 31817 ft 455 kts 63°
2026-04-23 06:36 45.89215 -121.36653 32149 ft 458 kts 64°
2026-04-23 06:37 45.90456 -121.32436 32542 ft 458 kts 64°
2026-04-23 06:37 45.91695 -121.28221 32960 ft 459 kts 64°
2026-04-23 06:37 45.92938 -121.23983 33178 ft 460 kts 64°
2026-04-23 06:37 45.94177 -121.19752 33168 ft 458 kts 64°
2026-04-23 06:38 45.96628 -121.11363 33145 ft 457 kts 64°
2026-04-23 06:38 45.99084 -121.02926 33136 ft 458 kts 64°
2026-04-23 06:39 46.01536 -120.94475 33132 ft 458 kts 64°
2026-04-23 06:39 46.03982 -120.86012 33121 ft 458 kts 64°
2026-04-23 06:40 46.06426 -120.77530 33107 ft 458 kts 64°
2026-04-23 06:40 46.08868 -120.69029 33106 ft 459 kts 64°
2026-04-23 06:41 46.11302 -120.60518 33092 ft 459 kts 64°
2026-04-23 06:41 46.13717 -120.52049 33082 ft 460 kts 64°
2026-04-23 06:42 46.16139 -120.43525 33075 ft 460 kts 64°
2026-04-23 06:42 46.18560 -120.34977 33070 ft 460 kts 64°
2026-04-23 06:43 46.20977 -120.26410 33063 ft 460 kts 64°
2026-04-23 06:43 46.23386 -120.17843 33061 ft 460 kts 64°
2026-04-23 06:44 46.25788 -120.09274 33055 ft 460 kts 64°
2026-04-23 06:44 46.28185 -120.00697 33048 ft 460 kts 64°
2026-04-23 06:45 46.30051 -119.91874 33038 ft 466 kts 76°
2026-04-23 06:45 46.31234 -119.82659 33029 ft 466 kts 76°
2026-04-23 06:46 46.32429 -119.73425 33032 ft 467 kts 76°
2026-04-23 06:46 46.33618 -119.64192 33035 ft 467 kts 76°
2026-04-23 06:47 46.34802 -119.54940 33033 ft 467 kts 76°
2026-04-23 06:47 46.35979 -119.45681 33039 ft 467 kts 76°
2026-04-23 06:48 46.37148 -119.36421 33036 ft 468 kts 76°
2026-04-23 06:48 46.38303 -119.27205 33039 ft 468 kts 77°
2026-04-23 06:49 46.39460 -119.17911 33034 ft 468 kts 77°
2026-04-23 06:49 46.40609 -119.08620 33041 ft 468 kts 77°
2026-04-23 06:50 46.41751 -118.99316 33037 ft 468 kts 77°
2026-04-23 06:50 46.42884 -118.90026 33034 ft 469 kts 77°
2026-04-23 06:51 46.44004 -118.80771 33031 ft 469 kts 77°
2026-04-23 06:51 46.45126 -118.71435 33036 ft 469 kts 78°
2026-04-23 06:52 46.46239 -118.62105 33031 ft 469 kts 78°
2026-04-23 06:52 46.47343 -118.52782 33043 ft 469 kts 78°
2026-04-23 06:53 46.48441 -118.43448 33035 ft 469 kts 78°
2026-04-23 06:53 46.49530 -118.34125 33038 ft 469 kts 78°
2026-04-23 06:54 46.50607 -118.24834 33035 ft 469 kts 78°
2026-04-23 06:54 46.51682 -118.15488 33026 ft 469 kts 78°
2026-04-23 06:55 46.52752 -118.06114 33026 ft 470 kts 79°
2026-04-23 06:55 46.53806 -117.96817 33026 ft 469 kts 79°
2026-04-23 06:56 46.54859 -117.87445 33024 ft 470 kts 79°
2026-04-23 06:56 46.55905 -117.78077 33020 ft 470 kts 79°
2026-04-23 06:57 46.56944 -117.68689 33026 ft 470 kts 79°
2026-04-23 06:57 46.57970 -117.59359 33000 ft 470 kts 80°
2026-04-23 06:58 46.58995 -117.49955 33007 ft 470 kts 80°
2026-04-23 06:58 46.60010 -117.40567 32993 ft 470 kts 80°
2026-04-23 06:59 46.61019 -117.31164 32983 ft 470 kts 80°
2026-04-23 06:59 46.62012 -117.21833 32977 ft 470 kts 81°
2026-04-23 07:00 46.63005 -117.12434 32974 ft 469 kts 81°
2026-04-23 07:00 46.63990 -117.03029 32975 ft 469 kts 81°
2026-04-23 07:01 46.64960 -116.93694 32998 ft 469 kts 81°
2026-04-23 07:01 46.65925 -116.84322 33002 ft 468 kts 81°
2026-04-23 07:02 46.66883 -116.74949 33006 ft 468 kts 81°
2026-04-23 07:02 46.67835 -116.65556 33020 ft 468 kts 81°
2026-04-23 07:03 46.68771 -116.56241 33027 ft 467 kts 82°
2026-04-23 07:03 46.69703 -116.46880 33033 ft 466 kts 82°
2026-04-23 07:04 46.70639 -116.37527 33029 ft 466 kts 82°
2026-04-23 07:04 46.71568 -116.28252 33038 ft 465 kts 82°
2026-04-23 07:05 46.72440 -116.18920 33039 ft 465 kts 82°
2026-04-23 07:05 46.73340 -116.09584 33045 ft 464 kts 82°
2026-04-23 07:06 46.74230 -116.00261 33045 ft 464 kts 82°
2026-04-23 07:06 46.75110 -115.90948 33041 ft 463 kts 82°
2026-04-23 07:07 46.75980 -115.81666 33037 ft 463 kts 82°
2026-04-23 07:07 46.76845 -115.72350 32747 ft 470 kts 82°
2026-04-23 07:08 46.77282 -115.67618 32447 ft 471 kts 82°
2026-04-23 07:08 46.77717 -115.62874 32172 ft 472 kts 82°
2026-04-23 07:08 46.78152 -115.58116 31891 ft 472 kts 82°
2026-04-23 07:08 46.78583 -115.53374 31606 ft 472 kts 82°
2026-04-23 07:09 46.79011 -115.48645 31284 ft 465 kts 82°
2026-04-23 07:09 46.79433 -115.43971 30710 ft 463 kts 82°
2026-04-23 07:09 46.79850 -115.39314 30026 ft 463 kts 82°
2026-04-23 07:09 46.80266 -115.34656 29349 ft 460 kts 82°
2026-04-23 07:10 46.80671 -115.30110 28820 ft 452 kts 82°
2026-04-23 07:10 46.81070 -115.25600 28321 ft 444 kts 82°
2026-04-23 07:10 46.81461 -115.21164 27804 ft 437 kts 81°
2026-04-23 07:10 46.81716 -115.18258 27455 ft 433 kts 81°
2026-04-23 07:11 46.82096 -115.13908 26931 ft 428 kts 81°
2026-04-23 07:11 46.82469 -115.09624 26419 ft 423 kts 81°
2026-04-23 07:11 46.82835 -115.05392 25922 ft 418 kts 81°
2026-04-23 07:12 46.83563 -114.96987 24924 ft 417 kts 81°
2026-04-23 07:12 46.83924 -114.92777 24423 ft 417 kts 81°
2026-04-23 07:12 46.84277 -114.88618 23942 ft 418 kts 81°
2026-04-23 07:12 46.84635 -114.84402 23444 ft 418 kts 81°
2026-04-23 07:13 46.84990 -114.80189 22882 ft 418 kts 81°
2026-04-23 07:13 46.85344 -114.75969 22365 ft 417 kts 81°
2026-04-23 07:13 46.85696 -114.71759 21905 ft 416 kts 81°
2026-04-23 07:13 46.86045 -114.67555 21443 ft 415 kts 81°
2026-04-23 07:14 46.86389 -114.63391 20970 ft 411 kts 80°
2026-04-23 07:14 46.86726 -114.59317 20515 ft 407 kts 80°
2026-04-23 07:14 46.87061 -114.55230 20066 ft 403 kts 80°
2026-04-23 07:14 46.87394 -114.51174 19636 ft 400 kts 79°
2026-04-23 07:15 46.87722 -114.47157 19187 ft 397 kts 79°
2026-04-23 07:15 46.88047 -114.43161 18787 ft 393 kts 79°
2026-04-23 07:15 46.88367 -114.39210 18406 ft 390 kts 79°
2026-04-23 07:15 46.88683 -114.35289 18002 ft 386 kts 79°
2026-04-23 07:16 46.88993 -114.31412 17640 ft 381 kts 79°
2026-04-23 07:16 46.89298 -114.27595 17354 ft 374 kts 79°
2026-04-23 07:16 46.89596 -114.23847 17022 ft 369 kts 79°
2026-04-23 07:16 46.89887 -114.20185 16682 ft 364 kts 79°
2026-04-23 07:17 46.90176 -114.16524 16306 ft 361 kts 79°
2026-04-23 07:17 46.90460 -114.12902 15935 ft 357 kts 79°
2026-04-23 07:17 46.90584 -114.09292 15679 ft 355 kts 92°
2026-04-23 07:17 46.89930 -114.05817 15416 ft 354 kts 113°
2026-04-23 07:18 46.88668 -114.02755 15242 ft 347 kts 126°
2026-04-23 07:18 46.87147 -114.00138 15097 ft 338 kts 128°
2026-04-23 07:18 46.85795 -113.97386 14960 ft 329 kts 122°
2026-04-23 07:18 46.84559 -113.94649 14786 ft 315 kts 121°
2026-04-23 07:19 46.83378 -113.92044 14643 ft 300 kts 121°
2026-04-23 07:19 46.82247 -113.89559 14534 ft 287 kts 121°
2026-04-23 07:19 46.81137 -113.87163 14289 ft 285 kts 125°
2026-04-23 07:19 46.79820 -113.84997 13948 ft 287 kts 136°
2026-04-23 07:20 46.78223 -113.83223 13574 ft 289 kts 149°
2026-04-23 07:20 46.76420 -113.81959 13212 ft 288 kts 162°
2026-04-23 07:20 46.74484 -113.81216 12840 ft 287 kts 174°
2026-04-23 07:20 46.72516 -113.80997 12584 ft 280 kts 185°
2026-04-23 07:21 46.70591 -113.81270 12230 ft 276 kts 195°
2026-04-23 07:21 46.68780 -113.82006 11886 ft 272 kts 206°
2026-04-23 07:21 46.67085 -113.83184 11538 ft 265 kts 217°
2026-04-23 07:21 46.65613 -113.84700 11222 ft 252 kts 227°
2026-04-23 07:22 46.64399 -113.86447 10942 ft 239 kts 236°
2026-04-23 07:22 46.63424 -113.88309 10660 ft 229 kts 244°
2026-04-23 07:22 46.62668 -113.90291 10360 ft 219 kts 252°
2026-04-23 07:22 46.62130 -113.92303 10087 ft 208 kts 258°
2026-04-23 07:23 46.61791 -113.94283 9861 ft 197 kts 265°
2026-04-23 07:23 46.61657 -113.96212 9598 ft 187 kts 274°
2026-04-23 07:23 46.61733 -113.98069 9317 ft 180 kts 281°
2026-04-23 07:23 46.61980 -113.99827 9079 ft 175 kts 288°
2026-04-23 07:24 46.62401 -114.01490 8895 ft 179 kts 295°
2026-04-23 07:24 46.63014 -114.03092 8689 ft 179 kts 303°
2026-04-23 07:24 46.63771 -114.04509 8490 ft 180 kts 310°
2026-04-23 07:24 46.64685 -114.05766 8267 ft 182 kts 319°
2026-04-23 07:25 46.65731 -114.06813 8052 ft 184 kts 327°
2026-04-23 07:25 46.66895 -114.07617 7836 ft 186 kts 335°
2026-04-23 07:25 46.68146 -114.08142 7610 ft 189 kts 343°
2026-04-23 07:25 46.69468 -114.08374 7373 ft 192 kts 352°
2026-04-23 07:26 46.70799 -114.08289 7145 ft 195 kts 360°
2026-04-23 07:26 46.72170 -114.08056 6897 ft 197 kts
2026-04-23 07:26 46.73510 -114.07801 6745 ft 196 kts
2026-04-23 07:26 46.74870 -114.07535 6635 ft 197 kts
2026-04-23 07:27 46.76233 -114.07265 6532 ft 198 kts
2026-04-23 07:27 46.77595 -114.06985 6392 ft 199 kts
2026-04-23 07:27 46.78904 -114.06207 6040 ft 208 kts 26°
2026-04-23 07:27 46.80115 -114.05045 5718 ft 207 kts 31°
2026-04-23 07:28 46.81261 -114.03884 5449 ft 191 kts 31°
2026-04-23 07:28 46.82300 -114.02834 5168 ft 170 kts 32°
2026-04-23 07:28 46.83247 -114.01921 4928 ft 159 kts 28°
2026-04-23 07:28 46.84230 -114.01285 4724 ft 153 kts 15°
2026-04-23 07:29 46.85278 -114.01054 4546 ft 153 kts 359°
2026-04-23 07:29 46.86332 -114.01257 4356 ft 153 kts 341°
2026-04-23 07:29 46.87273 -114.01923 4149 ft 149 kts 323°
2026-04-23 07:29 46.88026 -114.02944 3945 ft 149 kts 309°
2026-04-23 07:30 46.88675 -114.04134 3787 ft 150 kts 308°
2026-04-23 07:30 46.89335 -114.05284 3654 ft 150 kts 310°
2026-04-23 07:30 46.90018 -114.06442 3458 ft 151 kts 310°
2026-04-23 07:30 46.90701 -114.07611 3265 ft 151 kts 311°
2026-04-23 07:31 46.91335 -114.08693 3203 ft 110 kts 310°
2026-04-23 07:31 46.91681 -114.09277 3208 ft 57 kts 311°
2026-04-23 07:31 46.91914 -114.09682 3202 ft 36 kts 310°
2026-04-23 07:31 46.92046 -114.09901 3202 ft 16 kts 320°
2026-04-23 07:32 46.92118 -114.09903 3204 ft 9 kts 32°
2026-04-23 07:32 46.92173 -114.09835 3202 ft 11 kts 47°
2026-04-23 07:32 46.92165 -114.09741 3202 ft 11 kts 130°
2026-04-23 07:32 46.92110 -114.09646 3209 ft 15 kts 130°
2026-04-23 07:33 46.92015 -114.09483 3209 ft 27 kts 130°
2026-04-23 07:33 46.91867 -114.09231 3211 ft 38 kts 131°
2026-04-23 07:33 46.91776 -114.09058 3208 ft 8 kts 82°
2026-04-23 07:33 46.91845 -114.08953 3208 ft 21 kts 40°
2026-04-23 07:34 46.91951 -114.08820 3210 ft 16 kts 46°
2026-04-23 07:34 46.92004 -114.08713 3209 ft 11 kts 82°
2026-04-23 07:34 46.92002 -114.08618 3211 ft 7 kts 75°
2026-04-23 07:34 46.92017 -114.08558 3210 ft 5 kts 90°
2026-04-23 07:35 46.92003 -114.08526 3211 ft 2 kts 155°
2026-04-23 07:35 46.91992 -114.08523 3210 ft 1 kts 169°
2026-04-23 07:35 46.91991 -114.08523 3210 ft 0 kts 169°